Weather History for KOZW - January, 2013

Change the Weather History Date:

Thursday, January 10, 2013

  Actual Average Record
Temperature  
Mean Temperature 33 °F -  
Max Temperature 43 °F 29 °F 47 °F (2012)
Min Temperature 23 °F 17 °F 0 °F (2004)
Degree Days  
Heating Degree Days 32    
Moisture  
Dew Point 25 °F    
Average Humidity 74    
Maximum Humidity 90    
Minimum Humidity 46    
Precipitation  
Precipitation 0.00 in - - ()
Sea Level Pressure  
Sea Level Pressure 30.42 in    
Wind  
Wind Speed 6 mph (SE)    
Max Wind Speed 15 mph    
Max Gust Speed 21 mph    
Visibility 9 miles    
Events Rain    
Averages and records for this station are not official NWS values.
T = Trace of Precipitation, MM = Missing Value Source: NWS Daily Summary

Daily Weather History Graph

Daily Weather History Graph

Search for Another Location

Airport or City:

Trip Planner

Search our weather history database for the weather conditions in past years. The results will help you decide how hot, cold, wet, or windy it might be!

Date:

Astronomy

Jan. 10, 2013 Rise Set
Actual Time 8:05 AM EST 5:22 PM EST
Civil Twilight 7:33 AM EST 5:53 PM EST
Nautical Twilight 6:58 AM EST 6:29 PM EST
Astronomical Twilight 6:24 AM EST 7:03 PM EST
Moon 6:43 AM EST (1/10) 4:29 PM EST (1/10)
Length of Visible Light 10h 20m
Length of Day
9h 17m
Waning Crescent, 2% of the Moon is Illuminated
Jan 10
Waning Crescent
Jan 11
New
Jan 18
First Quarter
Jan 26
Full
Feb 3
Last Quarter

Hourly Weather History & Observations

Time (EST) Temp. Windchill Dew Point Humidity Pressure Visibility Wind Dir Wind Speed Gust Speed Precip Events Conditions
12:15 AM 32.0 °F 28.7 °F 23.7 °F 71% 30.41 in 10.0 mi SW 3.5 mph - N/A   Clear
12:35 AM 29.8 °F 23.9 °F 23.5 °F 77% 30.43 in 10.0 mi SSW 5.8 mph - N/A   Clear
12:54 AM 31.5 °F 24.9 °F 24.6 °F 76% 30.44 in 10.0 mi SSW 6.9 mph - N/A   Clear
1:15 AM 31.3 °F 25.6 °F 24.6 °F 76% 30.45 in 10.0 mi SSW 5.8 mph - N/A   Clear
1:35 AM 30.2 °F 23.4 °F 24.3 °F 79% 30.47 in 10.0 mi SW 6.9 mph - N/A   Clear
1:54 AM 30.2 °F 24.3 °F 24.3 °F 79% 30.49 in 10.0 mi SSW 5.8 mph - N/A   Clear
2:15 AM 30.0 °F 25.2 °F 24.3 °F 79% 30.50 in 10.0 mi SW 4.6 mph - N/A   Clear
2:35 AM 28.4 °F 23.3 °F 23.4 °F 81% 30.50 in 10.0 mi SW 4.6 mph - N/A   Clear
2:54 AM 29.3 °F 24.3 °F 24.1 °F 81% 30.52 in 10.0 mi WSW 4.6 mph - N/A   Clear
3:15 AM 29.1 °F 25.4 °F 24.3 °F 82% 30.51 in 10.0 mi WSW 3.5 mph - N/A   Clear
3:34 AM 28.4 °F - 23.7 °F 83% 30.51 in 10.0 mi Calm Calm - N/A   Clear
3:55 AM 28.2 °F - 23.7 °F 83% 30.50 in 10.0 mi Calm Calm - N/A   Clear
4:15 AM 28.2 °F - 23.9 °F 84% 30.49 in 10.0 mi Calm Calm - N/A   Clear
4:34 AM 27.7 °F 22.4 °F 23.4 °F 84% 30.49 in 10.0 mi SW 4.6 mph - N/A   Clear
4:55 AM 24.1 °F 18.2 °F 20.8 °F 87% 30.49 in 10.0 mi SSW 4.6 mph - N/A   Clear
5:14 AM 24.8 °F - 21.7 °F 88% 30.49 in 10.0 mi Calm Calm - N/A   Clear
5:34 AM 24.4 °F - 21.2 °F 87% 30.49 in 10.0 mi Calm Calm - N/A   Clear
5:55 AM 24.4 °F - 21.4 °F 88% 30.49 in 10.0 mi Calm Calm - N/A   Clear
6:14 AM 24.4 °F - 21.7 °F 89% 30.50 in 7.0 mi Calm Calm - N/A   Clear
6:35 AM 25.0 °F - 22.3 °F 89% 30.52 in 7.0 mi Calm Calm - N/A   Clear
6:55 AM 23.9 °F - 21.2 °F 89% 30.52 in 10.0 mi Calm Calm - N/A   Clear
7:15 AM 23.4 °F - 20.5 °F 89% 30.52 in 7.0 mi Calm Calm - N/A   Clear
7:35 AM 23.7 °F - 21.2 °F 90% 30.53 in 10.0 mi Calm Calm - N/A   Clear
7:54 AM 23.2 °F - 20.7 °F 90% 30.53 in 7.0 mi Calm Calm - N/A   Clear
8:34 AM 23.5 °F - 21.0 °F 90% 30.53 in 7.0 mi Calm Calm - N/A   Clear
8:54 AM 24.1 °F 19.7 °F 21.6 °F 90% 30.54 in 7.0 mi SE 3.5 mph - N/A   Clear
9:14 AM 25.5 °F - 23.0 °F 90% 30.54 in 7.0 mi Calm Calm - N/A   Clear
9:34 AM 25.5 °F - 23.0 °F 90% 30.54 in 7.0 mi Calm Calm - N/A   Clear
9:55 AM 27.5 °F - 24.8 °F 90% 30.55 in 7.0 mi Calm Calm - N/A   Clear
10:14 AM 28.9 °F 25.2 °F 26.1 °F 89% 30.55 in 7.0 mi ESE 3.5 mph - N/A   Clear
10:34 AM 30.9 °F - 27.3 °F 86% 30.54 in 10.0 mi Calm Calm - N/A   Clear
10:55 AM 32.5 °F 29.3 °F 28.2 °F 84% 30.53 in 10.0 mi ESE 3.5 mph - N/A   Clear
11:14 AM 34.9 °F 32.0 °F 27.9 °F 76% 30.52 in 10.0 mi ESE 3.5 mph - N/A   Clear
11:35 AM 37.4 °F 31.4 °F 27.1 °F 66% 30.51 in 10.0 mi SE 8.1 mph - N/A   Clear
11:55 AM 39.2 °F 32.5 °F 25.7 °F 58% 30.49 in 10.0 mi SE 10.4 mph - N/A   Clear
12:14 PM 39.4 °F 31.4 °F 24.4 °F 55% 30.48 in 10.0 mi SSE 13.8 mph - N/A   Clear
12:35 PM 39.4 °F 32.3 °F 24.3 °F 55% 30.47 in 10.0 mi SE 11.5 mph - N/A   Clear
12:55 PM 40.5 °F 34.1 °F 25.0 °F 54% 30.46 in 10.0 mi SE 10.4 mph - N/A   Clear
1:14 PM 42.1 °F 36.6 °F 24.8 °F 50% 30.45 in 10.0 mi SSE 9.2 mph - N/A   Clear
1:35 PM 43.7 °F 38.1 °F 24.3 °F 46% 30.44 in 10.0 mi SSE 10.4 mph - N/A   Clear
1:55 PM 41.7 °F 35.2 °F 22.1 °F 46% 30.42 in 10.0 mi SSE 11.5 mph - N/A   Clear
2:14 PM 41.0 °F 34.7 °F 23.5 °F 50% 30.41 in 10.0 mi SSE 10.4 mph - N/A   Clear
2:35 PM 41.0 °F 35.8 °F 25.2 °F 53% 30.41 in 10.0 mi SE 8.1 mph - N/A   Clear
2:54 PM 41.0 °F 34.3 °F 24.3 °F 51% 30.41 in 10.0 mi SSE 11.5 mph - N/A   Clear
3:14 PM 40.5 °F 34.1 °F 24.8 °F 54% 30.40 in 10.0 mi SE 10.4 mph - N/A   Clear
3:35 PM 38.7 °F 31.4 °F 25.5 °F 59% 30.40 in 10.0 mi SE 11.5 mph - N/A   Clear
3:54 PM 38.7 °F 32.9 °F 25.5 °F 59% 30.39 in 10.0 mi SE 8.1 mph - N/A   Clear
4:15 PM 38.3 °F 31.4 °F 25.7 °F 61% 30.38 in 10.0 mi SE 10.4 mph - N/A   Clear
4:34 PM 38.3 °F 32.5 °F 25.7 °F 61% 30.38 in 10.0 mi SE 8.1 mph - N/A   Clear
4:54 PM 37.9 °F 29.6 °F 24.6 °F 59% 30.37 in 10.0 mi SE 13.8 mph - N/A   Clear
5:15 PM 37.6 °F 30.5 °F 24.8 °F 60% 30.37 in 10.0 mi SE 10.4 mph - N/A   Clear
5:34 PM 37.0 °F 29.8 °F 25.3 °F 63% 30.35 in 10.0 mi SE 10.4 mph - N/A   Clear
5:55 PM 37.2 °F 30.6 °F 25.2 °F 62% 30.35 in 10.0 mi ESE 9.2 mph - N/A   Clear
6:15 PM 37.0 °F 29.3 °F 25.5 °F 63% 30.34 in 10.0 mi ESE 11.5 mph 16.1 mph N/A   Clear
6:34 PM 36.7 °F 28.9 °F 25.7 °F 64% 30.33 in 10.0 mi ESE 11.5 mph - N/A   Clear
6:55 PM 36.5 °F 28.7 °F 26.1 °F 66% 30.32 in 10.0 mi ESE 11.5 mph - N/A   Clear
7:15 PM 36.5 °F 28.2 °F 26.6 °F 67% 30.31 in 10.0 mi SE 12.7 mph 17.3 mph N/A   Clear
7:34 PM 36.5 °F 29.2 °F 27.1 °F 69% 30.31 in 10.0 mi SE 10.4 mph 16.1 mph N/A   Clear
7:55 PM 36.3 °F 28.4 °F 27.5 °F 70% 30.29 in 10.0 mi ESE 11.5 mph - N/A   Clear
8:15 PM 36.3 °F 28.0 °F 27.9 °F 71% 30.30 in 10.0 mi SE 12.7 mph - N/A   Clear
8:34 PM 36.5 °F 28.2 °F 27.7 °F 70% 30.29 in 10.0 mi SE 12.7 mph - N/A   Clear
8:55 PM 36.5 °F 28.2 °F 28.0 °F 71% 30.27 in 10.0 mi ESE 12.7 mph - N/A   Light Drizzle
9:15 PM 35.8 °F 28.3 °F 29.3 °F 77% 30.27 in 5.0 mi SE 10.4 mph - N/A Rain Rain
9:34 PM 35.6 °F 27.5 °F 30.2 °F 81% 30.26 in 7.0 mi SE 11.5 mph - N/A Rain Light Rain
9:55 PM 35.6 °F 27.1 °F 30.6 °F 82% 30.23 in 5.0 mi ESE 12.7 mph - N/A Rain Light Rain
10:14 PM 35.6 °F 27.5 °F 30.9 °F 83% 30.20 in 5.0 mi ESE 11.5 mph 20.7 mph N/A Rain Light Rain
10:34 PM 35.6 °F 26.6 °F 31.3 °F 84% 30.20 in 7.0 mi ESE 13.8 mph - N/A   Drizzle
10:55 PM 35.6 °F 26.2 °F 31.1 °F 84% 30.17 in 7.0 mi ESE 15.0 mph - N/A Rain Light Rain
11:14 PM 35.6 °F 26.6 °F 31.5 °F 85% 30.16 in 7.0 mi ESE 13.8 mph 20.7 mph N/A   Overcast
11:35 PM 36.0 °F 26.7 °F 31.1 °F 82% 30.14 in 10.0 mi ESE 15.0 mph - N/A   Overcast